[[{"header":{"parameterUnit":"m.s-1","parameterCategory":1,"la1":30.2992,"la2":30.254,"lo1":-89.0895,"lo2":-89.0443,"dy":0.0025,"dx":0.0025,"nx":19,"ny":19,"refTime":"2026-05-03T21:00:00:Z","depth":0,"parameterNumber":2,"parameterNumberName":"U-component_of_WINDS"},"data":[0,0,0,-0.8267,-0.827,-0.8424,-0.8425,-0.8611,-0.8612,0,0,0,0,0,0,0,0,0,0,0,-0.821,-0.821,-0.8267,-0.827,-0.8424,-0.8425,-0.861,-0.8612,0,0,0,0,0,0,0,0,0,0,0,-0.8209,-0.821,-0.8211,-0.8271,-0.8424,-0.8425,-0.861,-0.8499,0,0,0,0,0,0,0,0,0,0,-0.8352,-0.8286,-0.821,-0.8211,-0.8272,-0.8424,-0.8425,-0.8494,-0.8506,-0.8534,0,-0.8552,0,-0.8585,-0.8623,-0.8624,0,0,0,-0.828,-0.8276,-0.8328,-0.8211,-0.8273,-0.8424,-0.8358,-0.8501,-0.8514,-0.855,-0.8555,-0.8563,-0.8588,-0.8624,-0.8625,-0.8747,-0.8747,0,0,-0.8272,-0.8232,-0.8318,-0.8336,-0.8306,-0.8352,-0.8362,-0.8509,-0.8514,-0.8556,-0.8567,-0.8591,-0.8626,-0.8627,-0.8747,-0.8747,0,0,0,-0.8241,-0.8226,-0.8274,-0.8328,-0.8356,-0.8357,-0.8368,-0.8507,-0.8526,-0.8569,-0.8593,-0.8627,-0.8629,-0.8747,-0.8747,-0.8712,0,0,0,-0.8236,-0.8208,-0.827,-0.8247,-0.8353,-0.8432,-0.8362,-0.8516,-0.8534,-0.8592,-0.8627,-0.863,-0.8747,-0.8747,-0.8712,-0.8702,0,0,0,-0.8204,-0.8204,-0.8222,-0.8245,-0.8309,-0.8431,-0.8459,-0.8521,-0.8548,-0.8624,-0.8631,-0.8747,-0.8747,-0.8713,-0.8703,-0.8722,0,0,0,-0.8159,-0.819,-0.822,-0.8265,-0.8307,-0.8407,-0.8458,-0.8535,-0.8596,-0.8627,-0.8747,-0.8747,-0.8713,-0.8704,-0.8722,-0.873,-0.8729,0,0,-0.8176,-0.819,-0.822,-0.8252,-0.8334,-0.8386,-0.8467,-0.8562,-0.8608,-0.87,-0.8703,-0.8712,-0.8703,-0.8722,-0.874,-0.8739,0,0,0,-0.8212,-0.8232,-0.8263,-0.8317,-0.8388,-0.8451,-0.8537,-0.8574,-0.8653,-0.8645,-0.8726,-0.8722,-0.8735,-0.874,-0.8739,-0.8754,-0.8748,-0.8748,-0.8748,-0.8178,-0.8232,-0.8285,-0.8359,-0.8412,-0.8501,-0.8551,-0.8616,-0.8657,-0.8676,-0.8702,-0.8706,-0.8711,-0.8711,-0.8725,-0.8712,-0.8712,-0.8712,-0.8711,-0.8207,-0.8245,-0.8299,-0.8368,-0.8428,-0.849,-0.858,-0.8607,-0.8676,-0.869,-0.8704,-0.8714,-0.8708,-0.8723,-0.8709,-0.871,-0.871,-0.871,-0.871,-0.8191,-0.8218,-0.826,-0.8345,-0.8406,-0.8482,-0.8545,-0.8598,-0.8649,-0.8663,-0.8698,-0.8699,-0.8707,-0.8676,-0.8676,-0.8676,-0.8676,-0.8676,-0.8676,-0.8157,-0.8205,-0.8248,-0.8328,-0.837,-0.8434,-0.8527,-0.8573,-0.8637,-0.8671,-0.8672,-0.8713,-0.8696,-0.8691,-0.8677,-0.8677,-0.8677,-0.8677,-0.8677,-0.8165,-0.8172,-0.8239,-0.8281,-0.8381,-0.8439,-0.8506,-0.8595,-0.8641,-0.867,-0.8709,-0.8688,-0.8708,-0.8709,-0.8705,-0.8696,-0.8696,-0.8696,-0.8696,-0.815,-0.8165,-0.8246,-0.8311,-0.8382,-0.845,-0.8529,-0.8604,-0.8682,-0.8715,-0.8725,-0.8724,-0.8723,-0.8744,-0.8744,-0.8741,-0.8741,-0.8741,-0.8742,-0.8159,-0.8183,-0.8237,-0.831,-0.8392,-0.8463,-0.854,-0.8617,-0.8708,-0.8745,-0.8742,-0.874,-0.874,-0.8737,-0.8771,-0.877,-0.8766,0,0]},{"header":{"parameterUnit":"m.s-1","parameterCategory":1,"la1":30.2992,"la2":30.254,"lo1":-89.0895,"lo2":-89.0443,"dy":0.0025,"dx":0.0025,"nx":19,"ny":19,"refTime":"2026-05-03T21:00:00:Z","depth":0,"parameterNumber":3,"parameterNumberName":"V-component_of_WINDS"},"data":[0,0,0,6.8683,6.8683,6.8666,6.8666,6.8666,6.8666,0,0,0,0,0,0,0,0,0,0,0,6.87,6.87,6.8683,6.8683,6.8666,6.8666,6.8666,6.8666,0,0,0,0,0,0,0,0,0,0,0,6.8699,6.87,6.87,6.8683,6.8667,6.8666,6.8666,6.8671,0,0,0,0,0,0,0,0,0,0,6.8683,6.871,6.87,6.87,6.8683,6.8667,6.8666,6.8671,6.867,6.8682,0,6.8695,0,6.868,6.8667,6.8667,0,0,0,6.8674,6.8711,6.8695,6.87,6.8683,6.8667,6.8671,6.867,6.867,6.8681,6.8694,6.8694,6.868,6.8667,6.8667,6.8761,6.8762,0,0,6.8675,6.8703,6.8696,6.8696,6.8699,6.8672,6.8671,6.867,6.8686,6.8694,6.8693,6.868,6.8667,6.8667,6.876,6.8761,0,0,0,6.8683,6.8704,6.8688,6.8696,6.8692,6.8672,6.867,6.8686,6.8678,6.8693,6.868,6.8667,6.8668,6.8759,6.876,6.8829,0,0,0,6.8683,6.8709,6.8689,6.8707,6.8692,6.8689,6.8687,6.8679,6.8677,6.868,6.8667,6.8668,6.8758,6.876,6.8825,6.8857,0,0,0,6.8696,6.871,6.8712,6.8708,6.8702,6.8688,6.868,6.8678,6.867,6.8667,6.8668,6.8757,6.8759,6.8822,6.8851,6.8889,0,0,0,6.8719,6.8775,6.8714,6.8771,6.8703,6.8731,6.868,6.87,6.8706,6.8668,6.8758,6.876,6.8821,6.8847,6.8885,6.8925,6.8944,0,0,6.8805,6.8786,6.8818,6.8763,6.8809,6.8731,6.8788,6.8767,6.8741,6.8756,6.8758,6.8827,6.8851,6.8888,6.9046,6.9062,0,0,0,6.8854,6.8877,6.8883,6.889,6.8875,6.8864,6.8831,6.8823,6.8834,6.8754,6.885,6.8864,6.8885,6.8902,6.8915,6.8931,6.877,6.877,6.877,6.9017,6.898,6.9029,6.8991,6.8998,6.8963,6.8966,6.8949,6.891,6.8934,6.8937,6.9038,6.906,6.9069,6.9086,6.8957,6.8957,6.8957,6.8957,6.9138,6.9164,6.9112,6.914,6.9101,6.9125,6.9094,6.9066,6.9082,6.9032,6.9049,6.8996,6.9088,6.91,6.8962,6.8961,6.8961,6.896,6.896,6.9239,6.9245,6.9235,6.924,6.9249,6.9208,6.9226,6.919,6.9157,6.9173,6.9172,6.9171,6.9164,6.9176,6.9176,6.9177,6.9177,6.9177,6.9177,6.9347,6.9333,6.9352,6.9341,6.934,6.9335,6.9301,6.9299,6.9288,6.9261,6.9261,6.9219,6.9104,6.9075,6.9182,6.9182,6.9181,6.918,6.918,6.9481,6.9445,6.9475,6.9474,6.9458,6.9468,6.9423,6.9423,6.9416,6.9426,6.9381,6.9303,6.9281,6.927,6.9245,6.939,6.939,6.939,6.939,6.9565,6.9551,6.9572,6.9574,6.9571,6.9533,6.9567,6.9542,6.951,6.9503,6.9477,6.9443,6.9433,6.9416,6.9402,6.9379,6.9554,6.9555,6.9555,6.9645,6.9629,6.9664,6.9632,6.9617,6.9605,6.9635,6.9639,6.9595,6.9561,6.9497,6.949,6.9433,6.9417,6.938,6.9359,6.9315,0,0]}]]